NOAA NWS Hourly Roundups by Site

Regional Weather Roundup for Phoenix, AZ

To Select Another Site Choose from List

Select Site:  

000
ASUS45 KPSR 201410
RWRAZ

ARIZONA HOURLY REGIONAL WEATHER ROUNDUP
NATIONAL WEATHER SERVICE PHOENIX AZ
700 AM MST MON AUG 20 2018

NOTE: FAIR INDICATES FEW OR NO CLOUDS BELOW 12,000 FEET WITH NO
SIGNIFICANT WEATHER AND/OR OBSTRUCTIONS TO VISIBILITY.

AZZ001>003-036-201500-
NORTHWEST ARIZONA

CITY           SKY/WX    TMP DP  RH WIND       PRES   REMARKS
BULLHEAD CITY  SUNNY     91  59  33 S5        29.80R
KINGMAN        SUNNY     81  55  40 SE5       30.03R
$$

AZZ004>008-015-016-018-201500-
NORTH CENTRAL ARIZONA

CITY           SKY/WX    TMP DP  RH WIND       PRES   REMARKS
GRAND CANYON   MOSUNNY   59  49  69 CALM      30.30R
WILLIAMS       MOSUNNY   63  50  63 S8        30.28S
PRESCOTT       SUNNY     69  59  70 S8        30.18R
FLAGSTAFF      SUNNY     60  53  77 CALM      30.32R
PAYSON         SUNNY     70  54  56 CALM      30.19R
PAGE           MOSUNNY   75  36  24 CALM      30.10R
$$

AZZ009>014-017-201500-
NORTHEAST ARIZONA

CITY           SKY/WX    TMP DP  RH WIND       PRES   REMARKS
WINSLOW        SUNNY     64  33  31 E9        30.18R
SAINT JOHNS    SUNNY     56  43  61 CALM      30.25R
WINDOW ROCK    SUNNY     51  34  52 CALM      30.33R
SHOW LOW       SUNNY     61  39  44 CALM      30.30R
$$

AZZ540-542>544-546-548-201500-
GREATER PHOENIX AREA

CITY           SKY/WX    TMP DP  RH WIND       PRES   REMARKS
PHOENIX        MOSUNNY   90  65  43 SE6       29.87R
BUCKEYE        SUNNY     88  59  37 W3        29.89R
GLENDALE       MOSUNNY   91  61  35 S12       29.88R
LUKE AFB       SUNNY     92  59  33 S13       29.86R
DEER VALLEY    SUNNY     88  61  40 CALM      29.90R
SCOTTSDALE     SUNNY     91  59  33 CALM      29.92R
MESA-FALCON    SUNNY     91  63  38 NE5       29.91
MESA-GATEWAY   SUNNY     84  64  51 E6        29.91R
CHANDLER       MOSUNNY   86  64  48 CALM      29.89R
$$

AZZ539-553-201500-
SOUTHWEST MARICOPA COUNTY AND PINAL COUNTY

CITY           SKY/WX    TMP DP  RH WIND       PRES   REMARKS
CASA GRANDE    SUNNY     86  62  44 S8        29.93R
GILA BEND      FAIR      87  60  40 CALM      29.86R
$$

AZZ503-504-507>509-201500-
SOUTHEAST ARIZONA

CITY           SKY/WX    TMP DP  RH WIND       PRES   REMARKS
TUCSON         MOSUNNY   83  65  54 S8        30.03R
DAVIS-MONTHAN  MOSUNNY   82  65  55 S12       30.02R
RYAN FIELD     SUNNY     81  66  61 CALM      30.02R
NOGALES        PTSUNNY   71  69  93 MISG      30.13R
SIERRA VISTA   PTSUNNY   70  64  81 VRB7      30.18
DOUGLAS        PTSUNNY   74  66  76 SE9       30.13R
SAFFORD        SUNNY     77  57  50 SE6       30.01R
$$

AZZ532-201500-
SOUTHWEST ARIZONA

CITY           SKY/WX    TMP DP  RH WIND       PRES   REMARKS
YUMA           MOSUNNY   88  70  55 SE10      29.80R
$$

CAZ041-043-047-048-061-525>527-560>570-201500-
SOUTHERN CALIFORNIA

CITY           SKY/WX    TMP DP  RH WIND       PRES   REMARKS
DOWNTOWN L.A.  CLOUDY    73  65  75 CALM      29.91R
L.A. AIRPORT   CLOUDY    73  65  75 E7        29.92R
SAN DIEGO      CLOUDY    73  66  78 S8        29.94R
BURBANK        CLOUDY    68  67  96 SE6       29.93  FOG
ONTARIO        PTCLDY    68  64  87 W10       29.94R FOG
RIVERSIDE      CLEAR     69  64  84 W3        29.94R
PALM SPRINGS   CLEAR     88  61  40 CALM      29.83R
EL CENTRO NAS  PTCLDY    86  73  65 SE7       29.78R
IMPERIAL       PTCLDY    87  72  60 SE12      29.76R
BLYTHE         SUNNY     89  65  44 S9        29.80R
NEEDLES        SUNNY     97  65  34 NE5       29.81R
$$

NVZ020-UTZ003-201500-
SOUTHERN NEVADA-UTAH

CITY           SKY/WX    TMP DP  RH WIND       PRES   REMARKS
LAS VEGAS      MOSUNNY   90  44  20 S10       29.86R
SALT LAKE CITY PTSUNNY   73  38  27 SE15      30.00F
$$

NMZ009-TXZ055-201500-
NEW MEXICO-WEST TEXAS

CITY           SKY/WX    TMP DP  RH WIND       PRES   REMARKS
ALBUQUERQUE    MOSUNNY   68  50  52 E14       30.28R
EL PASO        PTSUNNY   80  60  50 E8        30.12R
$$


........................KEY........................
SKY/WX - SKY CONDITION/WEATHER
TMP    - TEMPERATURE IN FAHRENHEIT
DP     - DEW POINT IN FAHRENHEIT
RH     - RELATIVE HUMIDITY IN PERCENT
WIND   - DIRECTION AND SPEED IN MILES PER HOUR (MPH)
VRB    - VARIABLE WIND DIRECTION
PRES   - MEAN SEA LEVEL PRESSURE IN INCHES OF MERCURY
         F - FALLING PRESSURE   R - RISING PRESSURE
         S - STEADY PRESSURE
VSB    - VISIBILITY IN MILES
HX     - HEAT INDEX IN FAHRENHEIT
WCI    - WIND CHILL INDEX IN FAHRENHEIT
TC     - TEMPERATURE IN CELSIUS WHICH IS ALSO KNOWN AS
         TEMPERATURE IN CENTIGRADE
AFB    - AIR FORCE BASE
         LUKE AFB IS LUKE AIR FORCE BASE
         DAVIS-MONTHAN IS DAVIS-MONTHAN AIR FORCE BASE
NAS    - NAVAL AIR STATION
         EL CENTRO NAS IS EL CENTRO NAVAL AIR STATION
N/A    - NOT AVAILABLE



 

View Past Reports for Phoenix, AZ.

Products Courtesy of NOAA-NWS
NWS Information Parsing Script by Ken True at Saratoga Weather - Script by SE Lincoln Weather.